Canadian, TX

11:40 PM CST on December 10, 2019 (GMT -0600)
Hemphill County

Weather History for KHHF - October, 2019

Change the Weather History Date:

Tuesday, October 1, 2019

  Actual Average (WUND) Record (WUND)
Temperature  
Mean Temperature 74 °F -  
Max Temperature 82 °F - - (-1)
Min Temperature 68 °F - - (-1)
Cooling Degree Days 10    
Growing Degree Days 24 (Base 50)    
Moisture  
Dew Point 69 °F    
Average Humidity 88    
Maximum Humidity 97    
Minimum Humidity 70    
Precipitation  
Precipitation 0.06 in - - ()
Sea Level Pressure  
Sea Level Pressure 29.91 in    
Wind  
Wind Speed 13 mph (South)    
Max Wind Speed 25 mph    
Max Gust Speed 47 mph    
Visibility 10 miles    
Events Rain    
Averages and records for this station are not official NWS values.
T = Trace of Precipitation, MM = Missing Value Source: NWS Daily Summary

Daily Weather History Graph

Daily Weather History Graph

Search for Another Location

Airport or City:

Astronomy

Oct. 01, 2019 Rise Set
Actual Time 7:36 AM CDT 7:25 PM CDT
Civil Twilight 7:10 AM CDT 7:51 PM CDT
Nautical Twilight 6:41 AM CDT 8:20 PM CDT
Astronomical Twilight 6:11 AM CDT 8:50 PM CDT
Moon 10:49 AM CDT (10/1) 9:46 PM CDT (10/1)
Length of Visible Light 12h 40m
Length of Day
11h 49m
Waxing Crescent, 12% of the Moon is Illuminated
Oct 1
Waxing Crescent
Oct 5
First Quarter
Oct 13
Full
Oct 21
Last Quarter
Oct 27
New

Hourly Weather History & Observations

Time (CDT) Temp. Heat Index Dew Point Humidity Pressure Visibility Wind Dir Wind Speed Gust Speed Precip Events Conditions
12:15 AM 76.6 °F - 71.1 °F 83% 29.90 in 10.0 mi SSE 16.1 mph - N/A   Clear
12:35 AM 76.6 °F - 71.2 °F 83% 29.91 in 10.0 mi South 10.4 mph 19.6 mph N/A   Clear
12:55 AM 76.6 °F - 71.6 °F 84% 29.91 in 10.0 mi South 12.7 mph - N/A   Clear
1:15 AM 76.3 °F - 71.2 °F 84% 29.91 in 10.0 mi South 15.0 mph 19.6 mph N/A   Clear
1:35 AM 76.1 °F - 70.9 °F 84% 29.91 in 10.0 mi South 13.8 mph 18.4 mph N/A   Clear
1:55 AM 76.3 °F - 70.7 °F 83% 29.90 in 10.0 mi South 16.1 mph 23.0 mph N/A   Clear
2:15 AM 76.1 °F - 70.7 °F 83% 29.90 in 10.0 mi South 12.7 mph 20.7 mph N/A   Scattered Clouds
2:35 AM 76.1 °F - 70.7 °F 83% 29.90 in 10.0 mi South 13.8 mph - N/A   Overcast
2:55 AM 75.7 °F - 70.7 °F 84% 29.90 in 10.0 mi South 13.8 mph 19.6 mph N/A   Overcast
3:15 AM 76.1 °F - 70.7 °F 83% 29.90 in 10.0 mi South 13.8 mph - N/A   Overcast
3:35 AM 75.7 °F - 70.5 °F 84% 29.90 in 10.0 mi South 13.8 mph 18.4 mph N/A   Scattered Clouds
3:55 AM 75.2 °F - 70.2 °F 84% 29.90 in 10.0 mi South 15.0 mph 18.4 mph N/A   Clear
4:15 AM 75.7 °F - 70.0 °F 82% 29.90 in 10.0 mi South 15.0 mph 21.9 mph N/A   Mostly Cloudy
4:35 AM 75.6 °F - 69.8 °F 82% 29.90 in 10.0 mi South 15.0 mph 21.9 mph N/A   Scattered Clouds
4:55 AM 75.7 °F - 69.4 °F 81% 29.90 in 10.0 mi South 13.8 mph 24.2 mph N/A   Mostly Cloudy
5:15 AM 75.4 °F - 69.3 °F 81% 29.90 in 10.0 mi South 15.0 mph 21.9 mph N/A   Scattered Clouds
5:35 AM 75.2 °F - 69.1 °F 81% 29.90 in 10.0 mi South 15.0 mph 24.2 mph N/A   Scattered Clouds
5:55 AM 75.2 °F - 69.4 °F 82% 29.90 in 10.0 mi South 16.1 mph 25.3 mph N/A   Mostly Cloudy
6:15 AM 75.2 °F - 69.3 °F 82% 29.90 in 10.0 mi South 15.0 mph 24.2 mph N/A   Overcast
6:35 AM 75.2 °F - 69.8 °F 83% 29.90 in 10.0 mi South 17.3 mph 23.0 mph N/A   Overcast
6:55 AM 75.2 °F - 69.8 °F 83% 29.91 in 10.0 mi South 17.3 mph 25.3 mph N/A   Overcast
7:15 AM 73.4 °F - 69.8 °F 88% 29.91 in 10.0 mi South 15.0 mph 23.0 mph N/A   Overcast
7:35 AM 73.6 °F - 69.8 °F 88% 29.92 in 10.0 mi South 17.3 mph 25.3 mph N/A   Overcast
7:55 AM 73.8 °F - 69.8 °F 87% 29.92 in 10.0 mi South 16.1 mph 21.9 mph N/A   Overcast
8:15 AM 73.4 °F - 70.0 °F 89% 29.92 in 10.0 mi South 17.3 mph 21.9 mph N/A   Overcast
8:35 AM 73.8 °F - 70.2 °F 88% 29.93 in 10.0 mi South 19.6 mph 26.5 mph N/A   Overcast
8:55 AM 73.6 °F - 70.7 °F 91% 29.93 in 10.0 mi South 15.0 mph 21.9 mph N/A   Overcast
9:15 AM 75.7 °F - 71.1 °F 85% 29.93 in 10.0 mi South 16.1 mph 23.0 mph N/A   Overcast
9:35 AM 76.3 °F - 71.2 °F 84% 29.93 in 10.0 mi South 19.6 mph 26.5 mph N/A   Overcast
9:55 AM 76.6 °F - 71.4 °F 84% 29.94 in 10.0 mi South 16.1 mph 25.3 mph N/A   Overcast
10:15 AM 79.0 °F - 71.2 °F 77% 29.94 in 10.0 mi South 19.6 mph 28.8 mph N/A   Mostly Cloudy
10:35 AM 80.2 °F 83.9 °F 71.4 °F 74% 29.93 in 10.0 mi South 21.9 mph 27.6 mph N/A   Mostly Cloudy
10:55 AM 78.4 °F - 70.9 °F 77% 29.93 in 10.0 mi South 18.4 mph 25.3 mph N/A   Mostly Cloudy
11:15 AM 81.9 °F 86.2 °F 71.2 °F 70% 29.93 in 10.0 mi South 23.0 mph 29.9 mph N/A   Mostly Cloudy
11:35 AM 78.6 °F - 70.3 °F 76% 29.93 in 10.0 mi South 21.9 mph 34.5 mph N/A Rain Light Rain
11:55 AM 79.3 °F - 71.1 °F 76% 29.93 in 10.0 mi South 18.4 mph 29.9 mph N/A   Overcast
12:15 PM 79.9 °F - 71.2 °F 75% 29.92 in 10.0 mi South 21.9 mph 34.5 mph N/A   Overcast
12:35 PM 75.2 °F - 71.4 °F 88% 29.94 in 2.0 mi SSW 25.3 mph 47.2 mph 0.03 in Rain Light Rain
1:15 PM 70.7 °F - 67.8 °F 91% 29.95 in 10.0 mi SSW 12.7 mph 21.9 mph N/A   Light Drizzle
1:35 PM 71.8 °F - 68.2 °F 88% 29.95 in 10.0 mi SSW 12.7 mph - N/A   Overcast
1:55 PM 72.0 °F - 68.2 °F 88% 29.95 in 10.0 mi SW 15.0 mph 20.7 mph N/A Rain Light Rain
2:15 PM 72.0 °F - 67.8 °F 87% 29.94 in 10.0 mi SW 12.7 mph - N/A Rain Rain
2:35 PM 71.2 °F - 67.6 °F 88% 29.94 in 10.0 mi SW 8.1 mph - N/A   Light Drizzle
3:00 PM 71.4 °F - 68.2 °F 89% 29.93 in 10.0 mi SW 5.8 mph - N/A Rain Rain
3:15 PM 71.2 °F - 68.2 °F 90% 29.93 in 10.0 mi SW 4.6 mph - N/A   Overcast
3:35 PM 71.4 °F - 67.8 °F 88% 29.93 in 10.0 mi WSW 6.9 mph - N/A   Overcast
3:55 PM 70.0 °F - 67.3 °F 91% 29.93 in 10.0 mi West 5.8 mph - N/A   Overcast
4:15 PM 68.4 °F - 66.9 °F 95% 29.93 in 2.5 mi West 5.8 mph - 0.02 in Rain Heavy Rain
4:55 PM 68.5 °F - 67.6 °F 97% 29.92 in 7.0 mi SSW 3.5 mph - 0.03 in   Light Drizzle
5:15 PM 68.9 °F - 67.8 °F 96% 29.91 in 10.0 mi SW 4.6 mph - N/A   Overcast
5:35 PM 69.1 °F - 68.0 °F 96% 29.92 in 10.0 mi West 4.6 mph - N/A   Overcast
5:55 PM 68.9 °F - 67.5 °F 95% 29.91 in 10.0 mi WNW 5.8 mph - N/A   Overcast
6:15 PM 68.9 °F - 67.6 °F 96% 29.91 in 10.0 mi Calm Calm - N/A   Overcast
6:35 PM 68.9 °F - 68.0 °F 97% 29.90 in 10.0 mi Calm Calm - N/A   Overcast
6:55 PM 69.1 °F - 68.0 °F 96% 29.91 in 10.0 mi Calm Calm - N/A   Overcast
7:15 PM 69.1 °F - 68.0 °F 96% 29.90 in 10.0 mi Calm Calm - N/A   Overcast
7:35 PM 70.0 °F - 69.1 °F 97% 29.91 in 10.0 mi Calm Calm - N/A   Overcast
7:55 PM 70.0 °F - 69.1 °F 97% 29.91 in 10.0 mi SE 4.6 mph - N/A   Overcast
8:15 PM 70.0 °F - 68.9 °F 96% 29.91 in 10.0 mi SE 6.9 mph - N/A   Overcast
8:35 PM 69.6 °F - 68.4 °F 96% 29.90 in 10.0 mi ESE 5.8 mph - N/A   Overcast
8:55 PM 70.0 °F - 69.1 °F 97% 29.90 in 10.0 mi Calm Calm - N/A   Overcast
9:15 PM 69.1 °F - 68.2 °F 97% 29.90 in 10.0 mi Calm Calm - N/A   Mostly Cloudy
9:35 PM 70.0 °F - 68.9 °F 96% 29.90 in 10.0 mi SE 6.9 mph - N/A   Mostly Cloudy
9:55 PM 70.0 °F - 68.9 °F 96% 29.90 in 10.0 mi SE 4.6 mph - N/A   Overcast
10:15 PM 70.0 °F - 68.4 °F 95% 29.91 in 10.0 mi Calm Calm - N/A   Overcast
10:35 PM 70.0 °F - 68.4 °F 95% 29.91 in 10.0 mi South 3.5 mph - N/A   Mostly Cloudy
10:55 PM 70.0 °F - 68.4 °F 95% 29.90 in 10.0 mi Calm Calm - N/A   Scattered Clouds
11:15 PM 70.0 °F - 68.5 °F 95% 29.90 in 10.0 mi Calm Calm - N/A   Scattered Clouds
11:35 PM 70.0 °F - 68.5 °F 95% 29.89 in 10.0 mi SSE 4.6 mph - N/A   Scattered Clouds
11:55 PM 70.0 °F - 68.7 °F 96% 29.91 in 10.0 mi Calm Calm - N/A Rain Light Rain